Regional Weather Roundup
Issued by NWS

Home | Current Version | Previous Version | Text Only | Print | Product List | Glossary On
Versions: 1 2 3 4 5 6 7 8 9 10 11 12 13 14 15 16 17 18 19 20 21 22 23 24 25 26 27 28 29 30 31 32 33 34 35 36 37 38 39 40 41 42 43 44 45 46 47 48
000
ASUS46 KPQR 261210
RWROR

OREGON REGIONAL WEATHER ROUNDUP
NATIONAL WEATHER SERVICE PORTLAND OR
400 AM PST MON JAN 26 2015

NOTE: "FAIR" INDICATES FEW OR NO CLOUDS BELOW 12,000 FEET WITH
NO SIGNIFICANT WEATHER AND/OR OBSTRUCTIONS TO VISIBILITY.

ORZ001>013-261300-
NORTHWEST OREGON


CITY           SKY/WX    TMP DP  RH WIND       PRES   REMARKS
ASTORIA        CLEAR     40  39  97 CALM      29.92S
6HR MIN TEMP:  39; 6HR MAX TEMP:  46;

NEWPORT        CLEAR     54  45  71 S7        29.98F
PORTLAND       FOG       42  42 100 E6        30.01S VSB 1/4
6HR MIN TEMP:  39; 6HR MAX TEMP:  42;

VANCOUVER WA   FOG       42  41  96 E3        30.00S VSB 1/4
6HR MIN TEMP:  41; 6HR MAX TEMP:  43;

SCAPPOOSE      FOG       38  38 100 N3        29.99F VSB 1/4
6HR MIN TEMP:  37; 6HR MAX TEMP:  41;

HILLSBORO      FOG       43  43 100 CALM      29.99F VSB 1/4
6HR MIN TEMP:  42; 6HR MAX TEMP:  44;

AURORA         FOG       43  43 100 E7        30.01F VSB 1/2
6HR MIN TEMP:  42; 6HR MAX TEMP:  44;

MCMINNVILLE    FOG       44  43  96 SE7       30.01S VSB 1/4
6HR MIN TEMP:  44; 6HR MAX TEMP:  46;

SALEM          FOG       43  42  97 SE5       29.99S VSB 1/2
6HR MIN TEMP:  43; 6HR MAX TEMP:  45;

CORVALLIS      CLOUDY    45  43  93 CALM      30.01S VSB 1/4
EUGENE         FOG       39  37  92 W6        30.00F VSB 3/4 WCI  35
6HR MIN TEMP:  37; 6HR MAX TEMP:  44;

$$

ORZ021-028-261300-
SOUTHWEST OREGON


CITY           SKY/WX    TMP DP  RH WIND       PRES   REMARKS
NORTH BEND     CLEAR     46  46 100 SE7       29.97F
6HR MIN TEMP:  46; 6HR MAX TEMP:  55;

BROOKINGS      CLEAR     49  49 100 NE5       30.02R
ROSEBURG       FOG       46  45  96 S3        30.01R VSB 1/4
6HR MIN TEMP:  45; 6HR MAX TEMP:  50;

SEXTON SUMMIT  CLEAR     56  36  47 S13       30.08R
6HR MIN TEMP:  53; 6HR MAX TEMP:  59;

MEDFORD        FOG       37  36  96 CALM      30.06R VSB 1/4
6HR MIN TEMP:  35; 6HR MAX TEMP:  43;

$$

ORZ014>016-041-261300-
COLUMBIA GORGE


CITY           SKY/WX    TMP DP  RH WIND       PRES   REMARKS
TROUTDALE      CLEAR     49  42  77 E16G24    30.00R
6HR MIN TEMP:  43; 6HR MAX TEMP:  53;

THE DALLES     CLOUDY    42  38  85 E9        30.11F
6HR MIN TEMP:  42; 6HR MAX TEMP:  46;

$$

ORZ029>031-041-044-049-050-061>064-502-503-505>511-261300-
EASTERN OREGON


CITY           SKY/WX    TMP DP  RH WIND       PRES   REMARKS
REDMOND        CLEAR     47  36  65 SW7       30.09R
6HR MIN TEMP:  44; 6HR MAX TEMP:  54;

BEND           CLEAR     46  34  61 S9        30.11F
PRINEVILLE     CLEAR     50  36  57 CALM      30.11S
KLAMATH FALLS  CLEAR     31  28  89 N6        30.15F WCI  25
6HR MIN TEMP:  31; 6HR MAX TEMP:  39;

LAKEVIEW       CLEAR     30  25  80 W5        30.21S WCI  25
HERMISTON      FOG       37  36  96 N5        30.11S VSB 1/2 WCI  33
6HR MIN TEMP:  37; 6HR MAX TEMP:  38;

PENDLETON      FOG       33  32  96 W10       30.06R VSB<1/4 WCI  25
6HR MIN TEMP:  32; 6HR MAX TEMP:  35;

JOHN DAY       CLEAR     47  32  56 E5        30.17F
MEACHAM        MOCLDY    44  34  67 CALM      30.12F
6HR MIN TEMP:  42; 6HR MAX TEMP:  45;

LA GRANDE      PTCLDY    43  28  56 S31G51    30.21F
6HR MIN TEMP:  43; 6HR MAX TEMP:  46;

BAKER CITY     CLEAR     31  29  92 CALM      30.31F
6HR MIN TEMP:  28; 6HR MAX TEMP:  34;

BURNS          CLEAR     28  25  88 SW5       30.25F WCI  23
6HR MIN TEMP:  27; 6HR MAX TEMP:  32;

ROME             N/A     28  25  88 E6        30.27F WCI  22
6HR MIN TEMP:  26; 6HR MAX TEMP:  34;

ONTARIO        CLOUDY    34  31  88 N3        30.41F
6HR MIN TEMP:  34; 6HR MAX TEMP:  35;

$$


USA.gov is the U.S. government's official web portal to all federal, state and local government web resources and services.